Overview Statistics Trail Chart Weather Telemetry Raw packets
 

This is the latest recevied weather packets stored in our database for station/object 4S6DRJ-13. If no packets are shown the sender has not sent any weather packets the latest 10 day(s).

<< 474 475 476 477 478 479 480 >>
Time Temp. Humidity Pressure Rain* Wind** Luminosity Snow
1787730921 30° C 76% 1009.7 hPa 0 mm 0.89 m/s, 203° 642 W/m² -
1787730860 29.44° C 77% 1009.7 hPa 0 mm 0.45 m/s, 202° 661 W/m² -
1787730800 29.44° C 77% 1009.7 hPa 0 mm 0.45 m/s, 200° 661 W/m² -
1787730738 29.44° C 78% 1009.8 hPa 0 mm 1.34 m/s, 206° 642 W/m² -
1787730677 29.44° C 78% 1009.8 hPa 0 mm 1.34 m/s, 299° 675 W/m² -
1787730616 29.44° C 78% 1009.8 hPa 0 mm 1.34 m/s, 357° 563 W/m² -
1787730557 29.44° C 78% 1009.8 hPa 0 mm 0.89 m/s, 70° 596 W/m² -
1787730494 29.44° C 77% 1009.8 hPa 0 mm 2.24 m/s, 267° 589 W/m² -
1787730433 29.44° C 77% 1009.8 hPa 0 mm 2.24 m/s, 211° 576 W/m² -
1787730372 29.44° C 78% 1010 hPa 0 mm 1.79 m/s, 190° 424 W/m² -
1787730311 29.44° C 77% 1009.7 hPa 0 mm 2.68 m/s, 261° 438 W/m² -
1787730250 29.44° C 78% 1009.9 hPa 0 mm 0.89 m/s, 225° 568 W/m² -
1787730189 29.44° C 77% 1009.7 hPa 0 mm 0.89 m/s, 278° 599 W/m² -
1787730128 29.44° C 77% 1010.1 hPa 0 mm 3.13 m/s, 241° 644 W/m² -
1787730067 29.44° C 76% 1009.9 hPa 0 mm 3.13 m/s, 251° 619 W/m² -
1787730009 29.44° C 77% 1010 hPa 0 mm 2.68 m/s, 318° 515 W/m² -
1787729945 29.44° C 77% 1010.1 hPa 0 mm 1.34 m/s, 209° 510 W/m² -
1787729884 29.44° C 76% 1010 hPa 0 mm 2.24 m/s, 46° 519 W/m² -
1787729823 29.44° C 76% 1010.1 hPa 0 mm 2.24 m/s, 204° 519 W/m² -
1787729763 29.44° C 76% 1009.9 hPa 0 mm 1.79 m/s, 260° 569 W/m² -
1787729701 29.44° C 76% 1010.2 hPa 0 mm 2.68 m/s, 333° 606 W/m² -
1787729640 29.44° C 76% 1010.1 hPa 0 mm 3.58 m/s, 195° 593 W/m² -
1787729578 29.44° C 76% 1010.1 hPa 0 mm 4.02 m/s, 241° 567 W/m² -
1787729517 29.44° C 76% 1010.1 hPa 0 mm 1.79 m/s, 265° 435 W/m² -
1787729456 29.44° C 76% 1010 hPa 0 mm 2.24 m/s, 106° 408 W/m² -

* Rain latest hour (hover to see other rain measurements)
** Current wind speed in m/s (hover to see current wind gust speed)